User: anonymous   Login
Location: Pine Mountain Observatory
(43.7910°N, 120.9377°W)
Time: 19:58:35
(UTC-07:00)
Language:

Cosmos 1076 Rocket - Orbit

View from above orbital plane
View from above orbital plane
View from above satellite
View from above satellite

Ground track
Ground track

The orbit data is extracted from the following two-line orbital elements,

1 11267U 79011B   16238.85018411  .00000108  00000-0  88203-5 0  9998
2 11267  82.5275 148.3024 0018137 128.4636 231.8212 14.88778381 31525
Epoch (UTC): 25 August 2016 20:24:15
Eccentricity: 0.0018137
inclination: 82.5275°
perigee height: 589 km
apogee height: 614 km
right ascension of ascending node: 148.3024°
argument of perigee: 128.4636°
revolutions per day: 14.88778381
mean anomaly at epoch: 231.8212°
orbit number at epoch: 3152

The dashed part of the orbit path shows where the satellite is in the earth's shadow,  

DLR